| time (UTC) | temp F | wind direction | speed MPH | gust MPH | rain 1hr in | rain 24hr in | rain mn in | humidity % | barometer mb |
| 20260505153049 | 66 | 307 | 0.0 | 0.0 | 0.00 | 0.00 | 0.00 | 60 | 1010.9 |
| 20260505151555 | 64 | 0 | 0.0 | 0.0 | 0.00 | 0.00 | 0.00 | 65 | 1010.9 |
| 20260505140108 | 51 | 0 | 0.0 | 0.0 | 0.00 | 0.00 | 0.00 | 81 | 1010.2 |
| 20260505124557 | 49 | 0 | 0.0 | 0.0 | 0.00 | 0.00 | 0.00 | 84 | 1009.4 |
| 20260505123102 | 49 | 0 | 0.0 | 1.0 | 0.00 | 0.00 | 0.00 | 84 | 1009.2 |
| 20260505121558 | 49 | 0 | 0.0 | 1.0 | 0.00 | 0.00 | 0.00 | 83 | 1009.0 |
| 20260505120053 | 49 | 0 | 0.0 | 1.0 | 0.00 | 0.00 | 0.00 | 83 | 1008.9 |
| 20260505114555 | 50 | 0 | 0.0 | 1.0 | 0.00 | 0.00 | 0.00 | 82 | 1008.7 |
| 20260505113058 | 51 | 0 | 0.0 | 0.0 | 0.00 | 0.00 | 0.00 | 81 | 1008.6 |
| 20260505111553 | 52 | 0 | 0.0 | 0.0 | 0.00 | 0.00 | 0.00 | 80 | 1008.5 |
| 20260505101555 | 54 | 0 | 0.0 | 1.0 | 0.00 | 0.00 | 0.00 | 78 | 1008.0 |
| 20260505100052 | 54 | 0 | 0.0 | 0.0 | 0.00 | 0.00 | 0.00 | 77 | 1007.8 |
| 20260505094551 | 54 | 0 | 0.0 | 1.0 | 0.00 | 0.00 | 0.00 | 77 | 1007.7 |
| 20260505093049 | 54 | 0 | 0.0 | 0.0 | 0.00 | 0.00 | 0.00 | 77 | 1007.7 |
| 20260505091614 | 54 | 0 | 0.0 | 2.0 | 0.00 | 0.00 | 0.00 | 76 | 1007.6 |
| 20260505090049 | 53 | 0 | 0.0 | 0.0 | 0.00 | 0.00 | 0.00 | 75 | 1007.6 |
| 20260505084550 | 54 | 0 | 0.0 | 1.0 | 0.00 | 0.00 | 0.00 | 74 | 1007.5 |
| 20260505083053 | 54 | 0 | 0.0 | 2.0 | 0.00 | 0.00 | 0.00 | 74 | 1007.5 |
| 20260505081558 | 55 | 77 | 0.0 | 0.0 | 0.00 | 0.00 | 0.00 | 72 | 1007.5 |
| 20260505074548 | 56 | 0 | 0.0 | 0.0 | 0.00 | 0.00 | 0.00 | 68 | 1007.3 |
| 20260505073052 | 56 | 0 | 0.0 | 0.0 | 0.00 | 0.00 | 0.00 | 68 | 1007.3 |
| 20260505071556 | 56 | 0 | 0.0 | 1.0 | 0.00 | 0.00 | 0.00 | 69 | 1007.0 |
| 20260505070053 | 56 | 0 | 0.0 | 1.0 | 0.00 | 0.00 | 0.00 | 69 | 1007.0 |
| 20260505064552 | 56 | 0 | 0.0 | 1.0 | 0.00 | 0.00 | 0.00 | 68 | 1006.6 |
| 20260505063114 | 57 | 0 | 0.0 | 2.0 | 0.00 | 0.00 | 0.00 | 68 | 1006.6 |
| 20260505061623 | 57 | 0 | 0.0 | 0.0 | 0.00 | 0.00 | 0.00 | 67 | 1006.6 |
| 20260505054603 | 59 | 0 | 0.0 | 2.0 | 0.00 | 0.00 | 0.00 | 62 | 1006.1 |
| 20260505053051 | 59 | 0 | 0.0 | 0.0 | 0.00 | 0.00 | 0.00 | 63 | 1006.1 |
| 20260505051611 | 60 | 0 | 0.0 | 1.0 | 0.00 | 0.00 | 0.00 | 62 | 1006.0 |
| 20260505041555 | 63 | 0 | 0.0 | 0.0 | 0.00 | 0.00 | 0.00 | 58 | 1005.7 |
| 20260505040054 | 64 | 0 | 0.0 | 0.0 | 0.00 | 0.00 | 0.00 | 58 | 1005.6 |
| 20260505034550 | 66 | 0 | 0.0 | 1.0 | 0.00 | 0.00 | 0.00 | 55 | 1005.4 |
| 20260505033055 | 68 | 0 | 0.0 | 3.0 | 0.00 | 0.00 | 0.00 | 52 | 1005.2 |
| 20260505031559 | 71 | 103 | 2.0 | 5.0 | 0.00 | 0.00 | 0.00 | 47 | 1005.1 |
| 20260505030052 | 75 | 0 | 0.0 | 1.0 | 0.00 | 0.00 | 0.00 | 41 | 1005.1 |
| 20260505024555 | 79 | 0 | 0.0 | 1.0 | 0.00 | 0.00 | 0.00 | 36 | 1005.1 |
| 20260505023054 | 81 | 0 | 0.0 | 2.0 | 0.00 | 0.00 | 0.00 | 35 | 1005.1 |
| 20260505021553 | 83 | 0 | 0.0 | 1.0 | 0.00 | 0.00 | 0.00 | 32 | 1005.1 |
| 20260505014553 | 83 | 0 | 0.0 | 6.0 | 0.00 | 0.00 | 0.00 | 27 | 1005.2 |
| 20260505013103 | 84 | 355 | 0.0 | 4.0 | 0.00 | 0.00 | 0.00 | 25 | 1005.4 |
| 20260505011553 | 84 | 270 | 1.0 | 7.0 | 0.00 | 0.00 | 0.00 | 23 | 1005.5 |
| 20260505010108 | 85 | 351 | 1.0 | 9.0 | 0.00 | 0.00 | 0.00 | 23 | 1005.6 |
| 20260505004552 | 85 | 337 | 1.0 | 7.0 | 0.00 | 0.00 | 0.00 | 23 | 1005.6 |
| 20260505003056 | 85 | 21 | 3.0 | 10.0 | 0.00 | 0.00 | 0.00 | 21 | 1005.6 |
| 20260505001549 | 85 | 355 | 1.0 | 10.0 | 0.00 | 0.00 | 0.00 | 21 | 1005.6 |
| 20260505000100 | 86 | 46 | 2.0 | 9.0 | 0.00 | 0.00 | 0.00 | 20 | 1005.7 |
| 20260504234553 | 87 | 305 | 1.0 | 8.0 | 0.00 | 0.00 | 0.00 | 20 | 1005.7 |
| 20260504233105 | 86 | 297 | 3.0 | 7.0 | 0.00 | 0.00 | 0.00 | 23 | 1005.7 |
| 20260504231551 | 86 | 32 | 3.0 | 8.0 | 0.00 | 0.00 | 0.00 | 22 | 1005.8 |
| 20260504230056 | 86 | 304 | 1.0 | 6.0 | 0.00 | 0.00 | 0.00 | 23 | 1006.0 |
| 20260504224551 | 85 | 30 | 1.0 | 5.0 | 0.00 | 0.00 | 0.00 | 23 | 1006.1 |
| 20260504223048 | 85 | 39 | 0.0 | 6.0 | 0.00 | 0.00 | 0.00 | 24 | 1006.2 |
| 20260504221552 | 85 | 311 | 0.0 | 11.0 | 0.00 | 0.00 | 0.00 | 26 | 1006.4 |
| 20260504220054 | 85 | 348 | 2.0 | 8.0 | 0.00 | 0.00 | 0.00 | 22 | 1006.5 |
| 20260504214555 | 85 | 1 | 2.0 | 12.0 | 0.00 | 0.00 | 0.00 | 26 | 1006.7 |
| 20260504213052 | 85 | 253 | 3.0 | 10.0 | 0.00 | 0.00 | 0.00 | 24 | 1006.9 |
| 20260504211553 | 85 | 319 | 1.0 | 7.0 | 0.00 | 0.00 | 0.00 | 25 | 1007.0 |
| 20260504210104 | 84 | 324 | 2.0 | 6.0 | 0.00 | 0.00 | 0.00 | 26 | 1007.1 |
| 20260504204605 | 83 | 311 | 3.0 | 8.0 | 0.00 | 0.00 | 0.00 | 26 | 1007.3 |
| 20260504203106 | 83 | 301 | 1.0 | 5.0 | 0.00 | 0.00 | 0.00 | 28 | 1007.5 |
| 20260504201553 | 82 | 245 | 1.0 | 6.0 | 0.00 | 0.00 | 0.00 | 27 | 1007.6 |
| 20260504200057 | 81 | 280 | 1.0 | 8.0 | 0.00 | 0.00 | 0.00 | 28 | 1007.7 |
| 20260504194602 | 81 | 295 | 1.0 | 8.0 | 0.00 | 0.00 | 0.00 | 30 | 1007.7 |
| 20260504193057 | 80 | 224 | 1.0 | 6.0 | 0.00 | 0.00 | 0.00 | 28 | 1007.8 |
| 20260504191552 | 80 | 270 | 3.0 | 7.0 | 0.00 | 0.00 | 0.00 | 30 | 1007.9 |
| 20260504190121 | 79 | 283 | 3.0 | 8.0 | 0.00 | 0.00 | 0.00 | 30 | 1008.1 |
| 20260504184552 | 79 | 297 | 1.0 | 5.0 | 0.00 | 0.00 | 0.00 | 31 | 1008.1 |
| 20260504183054 | 78 | 303 | 2.0 | 5.0 | 0.00 | 0.00 | 0.00 | 34 | 1008.2 |
| 20260504181554 | 77 | 0 | 2.0 | 6.0 | 0.00 | 0.00 | 0.00 | 33 | 1008.3 |
| 20260504180057 | 75 | 267 | 2.0 | 9.0 | 0.00 | 0.00 | 0.00 | 35 | 1008.3 |
| 20260504174558 | 75 | 304 | 3.0 | 8.0 | 0.00 | 0.00 | 0.00 | 35 | 1008.3 |
| 20260504173057 | 74 | 245 | 3.0 | 5.0 | 0.00 | 0.00 | 0.00 | 36 | 1008.4 |
| 20260504171553 | 73 | 0 | 3.0 | 8.0 | 0.00 | 0.00 | 0.00 | 36 | 1008.3 |